Regional Weather Roundup
Issued by NWS Portland, ME

Home | Current Version | Previous Version | Text Only | Print | Product List | Glossary On
Versions: 1 2 3 4 5 6 7 8 9 10 11 12 13 14 15 16 17 18 19 20 21 22 23 24 25 26 27 28 29 30 31 32 33 34 35 36 37 38 39 40 41 42 43 44 45 46 47 48 49 50
000
ASUS41 KGYX 241810
RWRGYX
WEATHER ROUNDUP FOR MAINE AND NEW HAMPSHIRE
NATIONAL WEATHER SERVICE GRAY ME
200 PM EDT SUN JUL 24 2016

MEZ002-005-006-010-012-015-018-020-021-024-026-027-029-241900-
MAINE

CITY           SKY/WX    TMP DP  RH WIND       PRES   REMARKS
PORTLAND       MOSUNNY   81  61  50 S12       29.92R
6HR MIN TEMP:  73; 6HR MAX TEMP:  84;

SANFORD          N/A     82  59  45 NW8       29.93R
BAR HARBOR     SUNNY     81  59  47 N8        29.87F
WISCASSET      SUNNY     82  54  37 W8        29.91F
6HR MIN TEMP:  72; 6HR MAX TEMP:  82;

ROCKLAND       MOSUNNY   76  62  62 SE7       29.90R
FRYEBURG       NOT AVBL
LEWISTONAUBURN   N/A     80  55  42 N13       29.93S
AUGUSTA        SUNNY     81  52  36 W7        29.92S
6HR MIN TEMP:  70; 6HR MAX TEMP:  81;

WATERVILLE     SUNNY     79  54  41 N10       29.89F
BANGOR         MOSUNNY   86  58  38 NW7       29.89S
6HR MIN TEMP:  73; 6HR MAX TEMP:  86;

GREENVILLE       N/A     73  50  44 N8        29.94F
6HR MIN TEMP:  60; 6HR MAX TEMP:  74;

MILLINOCKET    MOSUNNY   82  56  40 VRB6G16   29.90S
6HR MIN TEMP:  66; 6HR MAX TEMP:  82;

HOULTON        MOSUNNY   81  61  50 NW8       29.86S
6HR MIN TEMP:  66; 6HR MAX TEMP:  82;

PRESQUE ISLE   PTSUNNY   79  61  53 N8        29.89S
6HR MIN TEMP:  64; 6HR MAX TEMP:  79;

FRENCHVILLE    MOSUNNY   77  58  51 NW9       29.90S
6HR MIN TEMP:  63; 6HR MAX TEMP:  77;

CARIBOU        PTSUNNY   78  60  53 NW8       29.87F
6HR MIN TEMP:  66; 6HR MAX TEMP:  81;

$$

NHZ002-005-008-009-011-012-014-241900-
NEW HAMPSHIRE

CITY           SKY/WX    TMP DP  RH WIND       PRES   REMARKS
PORTSMOUTH     PTSUNNY   84  57  39 W9        29.91S
ROCHESTER      MOSUNNY   82  52  35 NW9       29.93R
6HR MIN TEMP:  70; 6HR MAX TEMP:  85;

NASHUA         MOSUNNY   84  58  40 NW8G20    29.95S
MANCHESTER     PTSUNNY   84  55  36 VRB6      29.93S
6HR MIN TEMP:  72; 6HR MAX TEMP:  85;

CONCORD        SUNNY     87  52  29 NW13G24   29.94S
6HR MIN TEMP:  72; 6HR MAX TEMP:  87;

LACONIA        MOSUNNY   79  54  41 NW8G17    29.95F
PLYMOUTH       FAIR      77  54  45 W9G18     29.97S
BERLIN         SUNNY     75  55  49 W8        30.00F
6HR MIN TEMP:  63; 6HR MAX TEMP:  76;

WHITEFIELD     MOSUNNY   74  56  53 NW8       30.01F
6HR MIN TEMP:  63; 6HR MAX TEMP:  74;

JAFFREY        SUNNY     82  54  37 VRB5      29.99F
6HR MIN TEMP:  69; 6HR MAX TEMP:  82;

KEENE          SUNNY     83  54  36 W8        29.98F
LEBANON        SUNNY     83  48  29 N10       29.97F
6HR MIN TEMP:  65; 6HR MAX TEMP:  84;

MT WASHINGTON  MOSUNNY   57  10  15 N16         N/A
6HR MIN TEMP:  48; 6HR MAX TEMP:  59;

$$

VTZ005-007-008-241900-
VERMONT

CITY           SKY/WX    TMP DP  RH WIND       PRES   REMARKS
ST JOHNSBURY     N/A     76  55  48 MISG      29.99S
MONTPELIER     FAIR      73  53  49 NW8       30.05F
BURLINGTON     PTSUNNY   74  54  49 NE7       30.01F
$$

MAZ007-012-024-CTZ003-RIZ002-NYZ038-NYZ072-241900-
SOUTHERN NEW ENGLAND AND NY

CITY           SKY/WX    TMP DP  RH WIND       PRES   REMARKS
BOSTON         MOSUNNY   88  57  34 W10       29.92S
WORCESTER      MOSUNNY   82  57  42 W13       29.98F
NANTUCKET      MOSUNNY   79  65  62 VRB6      29.95F
PROVIDENCE     PTSUNNY   86  59  39 NW8       29.95S
HARTFORD       PTSUNNY   90  55  30 NW12G21   29.94F
ALBANY         PTSUNNY   85  62  46 N3        29.98F
NEW YORK CITY  PTSUNNY   93  56  28 N5        29.95F HX  91
$$

ANZ081-ANZ082-ANZ150-NHZ014-MEZ023>029-241900-
COASTAL MARINE OBSERVATIONS

STATION/POSITION TIME  TEMP    WIND        PRES    WAVE
                       AIR SEA DIR/SP/G            HT/PER
                 (UTC) (F)     (DEG/KT/KT) (MB)    (FT/S)
MOUNT DESERT ROC 1800   65     260/ 10/ 11 1012.1R
MATINICUS ROCK   1700   69     260/  6/  7 1012.2F
ISLE OF SHOALS   1700   74     140/  7/  7 1013.2R
JEFFREYS LEDGE   1708      69                N/A     2/ 8
CASHES LEDGE BUO 1750   70 70  250/  6/  8 1013.0R   2/ 8
GEORGES BANK BUO 1750   65 64              1011.2R   4/ 8
$$

.............KEY..............
   WCI - WIND CHILL
   TC  - TEMPERATURE IN CELSIUS
   VSB - VISIBILITY IN MILES
   HX  - HEAT INDEX
   FAIR- INDICATES FEW OR NO CLOUDS BELOW 12,000 FT, WITH NO
         SIGNIFICANT WEATHER AND/OR OBSTRUCTIONS TO VISIBILITY.





USA.gov is the U.S. government's official web portal to all federal, state and local government web resources and services.